Погода в Санта-Мария

Бразилия     29°41′23″S   53°47′52″W
темп.,
°C
ветер,
м/с
пор.,
м/с
влажн.,
%
обл.,
%
осадки,
мм/ч
давл.,
гПа
погр.,
м
9 мая, вс
вс900:00+10в35850 0.0 1024101
03:00+9в24925 0.0 102483
06:00+9в23900 0.0 102344
09:00+14в24720 0.0 1024225
12:00+22всв23475 0.0 1023843
15:00+25вюв23412 0.0 10201193
18:00+17в22775 0.0 102028
21:00+17в2372100 0.0 102152
10 мая, пн
пн1000:00+15в227587 0.0 102039
03:00+16всв1266100 0.0 101959
06:00+16в1165100 0.0 101918
09:00+18св116297 0.0 102067
12:00+19ююз225995 0.0 1020221
15:00+19юз2361100 0.0 1018368
18:00+16з1286100 0.2 101930
21:00+15зюз1299100 3.1 1020106
11 мая, вт
вт1100:00+15юз1398100 1.4 1020157
03:00+15ю1397100 1.4 1019157
06:00+14юв269899 0.2 1018262
09:00+13ююв3794100 0.2 1021420
12:00+16юв2479100 0.1 1020770
15:00+17ююв2368100 0.1 10181063
18:00+15ю2566100 0.0 1018195
21:00+11ю126690 0.0 102046
12 мая, ср
ср1200:00+10с0069100 0.0 102111
03:00+8сз018146 0.0 102010
06:00+7з11880 0.0 102110
09:00+10зюз22710 0.0 1023276
12:00+15юз22510 0.0 1022818
15:00+18юз34420 0.0 10201121
18:00+13з22620 0.0 102016
21:00+10с11700 0.0 102111
13 мая, чт
чт1300:00+8св11750 0.0 102110
03:00+7ссв11810 0.0 102110
06:00+6ссз11820 0.0 102110
09:00+11в11640 0.0 1023159
12:00+17юв11395 0.0 1022631
15:00+19ююв1133100 0.0 1020800
18:00+13в1158100 0.0 102010
21:00+11св116294 0.0 102111